This is the latest recevied weather packets stored in our database for station/object F5IOR-13. If no packets are shown the sender has not sent any weather packets the latest 10 day(s).
| Time | Temp. | Humidity | Pressure | Rain* | Wind** | Luminosity | Snow |
|---|---|---|---|---|---|---|---|
| 1777489705 | 17.78° C | 68% | 985.7 hPa | 0 mm | - | - | - |
| 1777487904 | 19.44° C | 59% | 985.6 hPa | 0 mm | - | - | - |
| 1777486104 | 20.56° C | 55% | 985.6 hPa | 0 mm | - | - | - |
| 1777484304 | 21.11° C | 53% | 985.6 hPa | 0 mm | - | - | - |
| 1777482504 | 21.67° C | 51% | 985.6 hPa | 0 mm | - | - | - |
| 1777480704 | 22.78° C | 48% | 985.6 hPa | 0 mm | - | - | - |
| 1777478904 | 22.78° C | 46% | 985.5 hPa | 0 mm | - | - | - |
| 1777477104 | 23.33° C | 42% | 985.5 hPa | 0 mm | - | - | - |
| 1777475304 | 23.33° C | 41% | 985.5 hPa | 0 mm | - | - | - |
| 1777473504 | 23.33° C | 41% | 985.4 hPa | 0 mm | - | - | - |
| 1777471704 | 23.33° C | 42% | 985.5 hPa | 0 mm | - | - | - |
| 1777469904 | 22.78° C | 48% | 985.8 hPa | 0 mm | - | - | - |
| 1777468104 | 22.78° C | 48% | 985.9 hPa | 0 mm | - | - | - |
| 1777466304 | 22.78° C | 45% | 986.1 hPa | 0 mm | - | - | - |
| 1777464504 | 22.22° C | 48% | 986.3 hPa | 0 mm | - | - | - |
| 1777462704 | 22.22° C | 51% | 986.3 hPa | 0 mm | - | - | - |
| 1777460904 | 21.11° C | 59% | 986.6 hPa | 0 mm | - | - | - |
| 1777459104 | 20.56° C | 60% | 986.6 hPa | 0 mm | - | - | - |
| 1777457304 | 19.44° C | 64% | 986.8 hPa | 0 mm | - | - | - |
| 1777455504 | 18.89° C | 65% | 986.8 hPa | 0 mm | - | - | - |
| 1777454544 | 17.78° C | 69% | 986.8 hPa | 0 mm | - | - | - |
| 1777453584 | 17.78° C | 71% | 986.8 hPa | 0 mm | - | - | - |
| 1777452624 | 17.22° C | 73% | 986.8 hPa | 0 mm | - | - | - |
| 1777451664 | 16.11° C | 78% | 986.7 hPa | 0 mm | - | - | - |
| 1777451184 | 16.11° C | 78% | 986.7 hPa | 0 mm | - | - | - |
* Rain latest hour (hover to see other rain measurements)
** Current wind speed in m/s (hover to see current wind gust speed)